{"data":{"norad_id":56309,"epoch":"2026-09-21T23:03:22.999968Z","epoch_age_seconds":60769,"freshness":"FRESH","line1":"1 56309U 23057B   26264.96068287  .00008767  00000+0  31665-3 0  9997","line2":"2 56309   9.9919  46.1773 0003751 100.3682 259.6957 15.23679949188832","mean_motion":15.23679949,"eccentricity":0.0003751,"inclination_deg":9.9919,"raan_deg":46.1773,"arg_perigee_deg":100.3682,"mean_anomaly_deg":259.6957,"bstar":0.00031665,"rev_number":18883,"period_min":94.508036346155,"perigee_km":492.17413372984,"apogee_km":497.33017517351,"semimajor_km":6872.8891544517,"source":"CELESTRAK","updated_at":"2026-09-22T09:00:25.743527Z"}}